Showing default

KINEIS-2D, 62930

Orbit data source: Space-Track

KINEIS-2D, 62930 is a French payload satellite in SSO that was launched on Sat, 08 Feb 2025 UTC via an ELECTRON launch vehicle from the Rocket Lab Launch Complex (RLLC). Payload-class satellites include a variety of spacecraft equipped with specific instruments for various scientific and technological missions. These include communications satellites like Starlink; space stations such as the ISS; scientific satellites like the Hubble; Earth observation satellites from companies like Planet Labs, Umbra, and HawkEye 360; GPS; miniature CubeSats for education and research; and military/defense satellites.

Loading next visibility...
Identifier
62930, 2025-028C
Orbit
SSO
Country
Flag of FRFR
Related business
Manufacturer
KINEIS
Mission
Operational Commercial Communications
Bus & Motor
CUBESAT 16U, Unknown motor
Mass
28 kg wet, 28 kg dry
Launch date (UTC)
2025-02-08 (9 months ago)
Launch vehicle
ELECTRON
Launch site
Rocket Lab Launch Complex (RLLC)
Object type
Payload
Rocket body
Debris
Shape & HBR
Box + 2 Pan + 1 Ant, 1.0 m
Radar Cross Section
0.229 m², Medium (>0.1 m² and < 1m²)

Expand to show TLE details & history
Last TLE update: 16 hours ago

TLE from 16 hours ago
0 KINEIS-2D
1 62930U 25028C   25308.61643211  .00002193  00000-0  33584-3 0  9990
2 62930  97.9611   0.1463 0003085 180.9868 179.1336 14.74680713 39604
Epoch: 2025-11-04T14:47Z
TLE epoch observation values (Epoch: 2025-11-04T14:47:39.734Z)
Latitude
0.00006°
Longitude
94.12984°
Altitude
651.345 km
Speed
7.531 km/s
True Right ascension
00h 00m 35s
True Declination
0° 00' 00"
Sunlit
Object was in full shadow at epoch
Visualization orbit readout
Latitude
Unknown
Longitude
Unknown
Altitude
Unknown
Speed
Unknown
Apparent Right ascension
Unknown
Apparent Declination
Unknown
Sunlit
N/A
Visualization observer readout
Local Sidereal Time
02:25:05
Azimuth
Unknown
Elevation
Unknown
Doppler factor
Unknown
Orbital elements
Apogee altitude
645.382 km
Perigee altitude
641.05 km
Semi-major axis
7,021.353 km
Eccentricity
0.00031
Inclination
97.9611°
RAAN
0.1463°
Arg. of periapsis
180.9868°
True anomaly
179.13413°
Mean anomaly
179.1336°
Eccentric anomaly
179.13387°
Mean motion
3.68903 °/min
Orbital period
97.59 mins
BSTAR
0.00033584
Loading maneuver chart data...
Computing Atmospheric mass density...
Loading historical data...
Loading historical data...
Loading historical data...
Loading historical data...
Loading historical data...
Loading historical data...
Loading historical data...

Documentation

Showing up to 5 results
|